| time (UTC) | temp C | wind direction | speed KPH | gust KPH | rain 1hr cm | rain 24hr cm | rain mn cm | humidity % | barometer mb |
| 20260507020337 | 15 | 0 | 0.0 | 0.0 | 0.00 | 0.00 | 0.00 | 74 | 994.0 |
| 20260507014813 | 15 | 0 | 0.0 | 0.0 | 0.00 | 0.00 | 0.00 | 75 | 994.0 |
| 20260507013248 | 15 | 0 | 0.0 | 0.0 | 0.00 | 0.00 | 0.00 | 74 | 994.0 |
| 20260507011723 | 16 | 0 | 0.0 | 0.0 | 0.00 | 0.00 | 0.00 | 72 | 994.0 |
| 20260507010158 | 16 | 0 | 0.0 | 0.0 | 0.00 | 0.00 | 0.00 | 70 | 994.0 |
| 20260507004634 | 16 | 0 | 0.0 | 0.0 | 0.00 | 0.00 | 0.00 | 68 | 994.0 |
| 20260507003109 | 16 | 0 | 0.0 | 0.0 | 0.00 | 0.00 | 0.00 | 66 | 994.0 |
| 20260507001545 | 16 | 0 | 0.0 | 0.0 | 0.00 | 0.00 | 0.00 | 64 | 994.0 |
| 20260507000020 | 17 | 0 | 0.0 | 0.0 | 0.00 | 0.00 | 0.00 | 62 | 994.0 |
| 20260506234456 | 17 | 0 | 0.0 | 0.0 | 0.00 | 0.00 | 0.00 | 61 | 994.0 |
| 20260506232931 | 18 | 0 | 0.0 | 0.0 | 0.00 | 0.00 | 0.00 | 59 | 994.0 |
| 20260506231407 | 18 | 0 | 0.0 | 0.0 | 0.00 | 0.00 | 0.00 | 59 | 994.0 |
| 20260506225843 | 18 | 0 | 0.0 | 0.0 | 0.00 | 0.00 | 0.00 | 59 | 994.0 |
| 20260506224318 | 18 | 0 | 0.0 | 0.0 | 0.00 | 0.00 | 0.00 | 59 | 994.0 |
| 20260506222754 | 18 | 0 | 0.0 | 0.0 | 0.00 | 0.00 | 0.00 | 58 | 994.0 |
| 20260506221229 | 18 | 0 | 0.0 | 0.0 | 0.00 | 0.00 | 0.00 | 59 | 994.0 |
| 20260506215705 | 18 | 0 | 0.0 | 0.0 | 0.00 | 0.00 | 0.00 | 61 | 994.0 |
| 20260506214140 | 18 | 0 | 0.0 | 0.0 | 0.00 | 0.00 | 0.00 | 60 | 994.0 |
| 20260506212616 | 18 | 0 | 0.0 | 0.0 | 0.00 | 0.00 | 0.00 | 60 | 994.0 |
| 20260506211051 | 18 | 0 | 0.0 | 0.0 | 0.00 | 0.00 | 0.00 | 60 | 993.0 |
| 20260506205527 | 18 | 0 | 0.0 | 0.0 | 0.00 | 0.00 | 0.00 | 60 | 994.0 |
| 20260506204002 | 18 | 0 | 0.0 | 0.0 | 0.00 | 0.00 | 0.00 | 60 | 994.0 |
| 20260506202438 | 18 | 0 | 0.0 | 0.0 | 0.00 | 0.00 | 0.00 | 59 | 994.0 |
| 20260506200914 | 19 | 0 | 0.0 | 0.0 | 0.00 | 0.00 | 0.00 | 58 | 994.0 |
| 20260506195350 | 19 | 0 | 0.0 | 0.0 | 0.00 | 0.00 | 0.00 | 56 | 994.0 |
| 20260506193825 | 20 | 0 | 0.0 | 0.0 | 0.00 | 0.00 | 0.00 | 56 | 994.0 |
| 20260506192743 | 20 | 0 | 0.0 | 0.0 | 0.00 | 0.00 | 0.00 | 55 | 994.0 |
| 20260506191621 | 20 | 0 | 0.0 | 0.0 | 0.00 | 0.00 | 0.00 | 54 | 994.0 |
| 20260506190056 | 20 | 0 | 0.0 | 0.0 | 0.00 | 0.00 | 0.00 | 54 | 994.0 |
| 20260506184532 | 21 | 0 | 0.0 | 0.0 | 0.00 | 0.00 | 0.00 | 52 | 994.0 |
| 20260506183008 | 21 | 0 | 0.0 | 0.0 | 0.00 | 0.00 | 0.00 | 51 | 993.0 |
| 20260506181444 | 21 | 0 | 0.0 | 0.0 | 0.00 | 0.00 | 0.00 | 51 | 993.0 |
| 20260506175919 | 22 | 0 | 0.0 | 0.0 | 0.00 | 0.00 | 0.00 | 50 | 993.0 |
| 20260506174355 | 22 | 0 | 0.0 | 0.0 | 0.00 | 0.00 | 0.00 | 49 | 993.0 |
| 20260506172831 | 22 | 0 | 0.0 | 0.0 | 0.00 | 0.00 | 0.00 | 49 | 993.0 |
| 20260506171306 | 23 | 0 | 0.0 | 0.0 | 0.00 | 0.00 | 0.00 | 47 | 993.0 |
| 20260506165742 | 23 | 0 | 0.0 | 0.0 | 0.00 | 0.00 | 0.00 | 46 | 993.0 |
| 20260506164219 | 23 | 0 | 0.0 | 0.0 | 0.00 | 0.00 | 0.00 | 46 | 993.0 |
| 20260506162652 | 24 | 0 | 0.0 | 0.0 | 0.00 | 0.00 | 0.00 | 45 | 993.0 |
| 20260506161128 | 24 | 0 | 0.0 | 0.0 | 0.00 | 0.00 | 0.00 | 44 | 993.0 |
| 20260506155604 | 25 | 0 | 0.0 | 0.0 | 0.00 | 0.00 | 0.00 | 43 | 993.0 |
| 20260506154426 | 26 | 0 | 0.0 | 0.0 | 0.00 | 0.00 | 0.00 | 41 | 993.0 |
| 20260506153316 | 26 | 0 | 0.0 | 0.0 | 0.00 | 0.00 | 0.00 | 42 | 993.0 |
| 20260506151941 | 26 | 0 | 0.0 | 0.0 | 0.00 | 0.00 | 0.00 | 42 | 993.0 |
| 20260506150416 | 27 | 0 | 0.0 | 0.0 | 0.00 | 0.00 | 0.00 | 40 | 993.0 |
| 20260506145750 | 27 | 0 | 0.0 | 0.0 | 0.00 | 0.00 | 0.00 | 39 | 993.0 |
| 20260506144226 | 27 | 0 | 0.0 | 0.0 | 0.00 | 0.00 | 0.00 | 39 | 993.0 |
| 20260506143034 | 27 | 0 | 0.0 | 0.0 | 0.00 | 0.00 | 0.00 | 39 | 993.0 |
| 20260506141510 | 26 | 0 | 0.0 | 0.0 | 0.00 | 0.00 | 0.00 | 41 | 993.0 |
| 20260506135946 | 27 | 0 | 0.0 | 0.0 | 0.00 | 0.00 | 0.00 | 40 | 993.0 |
| 20260506134421 | 25 | 0 | 0.0 | 0.0 | 0.00 | 0.00 | 0.00 | 43 | 993.0 |
| 20260506132857 | 25 | 0 | 0.0 | 0.0 | 0.00 | 0.00 | 0.00 | 43 | 993.0 |
| 20260506131332 | 27 | 0 | 0.0 | 0.0 | 0.00 | 0.00 | 0.00 | 40 | 993.0 |
| 20260506125808 | 27 | 0 | 0.0 | 0.0 | 0.00 | 0.00 | 0.00 | 40 | 993.0 |
| 20260506124243 | 25 | 0 | 0.0 | 0.0 | 0.00 | 0.00 | 0.00 | 43 | 993.0 |
| 20260506122719 | 23 | 0 | 0.0 | 0.0 | 0.00 | 0.00 | 0.00 | 45 | 993.0 |
| 20260506121154 | 23 | 0 | 0.0 | 0.0 | 0.00 | 0.00 | 0.00 | 45 | 993.0 |
| 20260506115630 | 25 | 0 | 0.0 | 0.0 | 0.00 | 0.00 | 0.00 | 42 | 993.0 |
| 20260506114106 | 29 | 0 | 0.0 | 0.0 | 0.00 | 0.00 | 0.00 | 37 | 993.0 |
| 20260506112541 | 24 | 0 | 0.0 | 0.0 | 0.00 | 0.00 | 0.00 | 43 | 993.0 |
| 20260506111017 | 25 | 0 | 0.0 | 0.0 | 0.00 | 0.00 | 0.00 | 41 | 993.0 |
| 20260506105452 | 25 | 0 | 0.0 | 0.0 | 0.00 | 0.00 | 0.00 | 42 | 993.0 |
| 20260506103928 | 23 | 0 | 0.0 | 0.0 | 0.00 | 0.00 | 0.00 | 43 | 993.0 |
| 20260506102404 | 23 | 0 | 0.0 | 0.0 | 0.00 | 0.00 | 0.00 | 44 | 993.0 |
| 20260506100840 | 23 | 0 | 0.0 | 0.0 | 0.00 | 0.00 | 0.00 | 45 | 993.0 |
| 20260506095316 | 22 | 0 | 0.0 | 0.0 | 0.00 | 0.00 | 0.00 | 45 | 993.0 |
| 20260506094825 | 22 | 0 | 0.0 | 0.0 | 0.00 | 0.00 | 0.00 | 44 | 993.0 |
| 20260506093301 | 22 | 0 | 0.0 | 0.0 | 0.00 | 0.00 | 0.00 | 42 | 993.0 |
| 20260506091736 | 22 | 0 | 0.0 | 0.0 | 0.00 | 0.00 | 0.00 | 41 | 993.0 |
| 20260506090211 | 22 | 0 | 0.0 | 0.0 | 0.00 | 0.00 | 0.00 | 42 | 993.0 |
| 20260506084647 | 22 | 0 | 0.0 | 0.0 | 0.00 | 0.00 | 0.00 | 41 | 993.0 |
| 20260506083122 | 21 | 0 | 0.0 | 0.0 | 0.00 | 0.00 | 0.00 | 43 | 993.0 |
| 20260506081558 | 21 | 0 | 0.0 | 0.0 | 0.00 | 0.00 | 0.00 | 44 | 993.0 |
| 20260506072945 | 20 | 0 | 0.0 | 0.0 | 0.00 | 0.00 | 0.00 | 47 | 993.0 |
| 20260506071421 | 20 | 0 | 0.0 | 0.0 | 0.00 | 0.00 | 0.00 | 48 | 993.0 |
| 20260506061243 | 16 | 0 | 0.0 | 0.0 | 0.00 | 0.00 | 0.00 | 59 | 993.0 |
| 20260506051105 | 13 | 0 | 0.0 | 0.0 | 0.00 | 0.00 | 0.00 | 74 | 994.0 |
| 20260506050758 | 13 | 0 | 0.0 | 0.0 | 0.00 | 0.00 | 0.00 | 75 | 994.0 |
| 20260506043709 | 12 | 0 | 0.0 | 0.0 | 0.00 | 0.00 | 0.00 | 77 | 993.0 |
| 20260506042145 | 12 | 0 | 0.0 | 0.0 | 0.00 | 0.00 | 0.00 | 77 | 993.0 |
| 20260506040620 | 12 | 0 | 0.0 | 0.0 | 0.00 | 0.00 | 0.00 | 77 | 994.0 |
| 20260506035056 | 12 | 0 | 0.0 | 0.0 | 0.00 | 0.00 | 0.00 | 77 | 994.0 |
| 20260506034558 | 12 | 0 | 0.0 | 0.0 | 0.00 | 0.00 | 0.00 | 76 | 994.0 |
| 20260506033034 | 12 | 0 | 0.0 | 0.0 | 0.00 | 0.00 | 0.00 | 75 | 994.0 |
| 20260506031509 | 12 | 0 | 0.0 | 0.0 | 0.00 | 0.00 | 0.00 | 73 | 994.0 |
| 20260506025945 | 12 | 0 | 0.0 | 0.0 | 0.00 | 0.00 | 0.00 | 73 | 994.0 |
| 20260506024420 | 11 | 0 | 0.0 | 0.0 | 0.00 | 0.00 | 0.00 | 73 | 994.0 |
| 20260506022856 | 12 | 0 | 0.0 | 0.0 | 0.00 | 0.00 | 0.00 | 72 | 994.0 |